Regional Weather Roundup
Issued by NWS

Home | Current Version | Previous Version | Graphics & Text | Print | Product List | Glossary Off
Versions: 1 2 3 4 5 6 7 8 9 10 11 12 13 14 15 16 17 18 19 20 21 22 23 24 25 26 27 28 29 30 31 32 33 34 35 36 37 38 39 40 41 42 43 44 45 46 47 48 49 50

000
ASUS43 KDMX 241407
RWRIA

WEATHER ROUNDUP FOR IOWA
NATIONAL WEATHER SERVICE DES MOINES IA
900 AM CDT THU JUL 24 2014

NOTE: "FAIR" INDICATES FEW OR NO CLOUDS BELOW 12,000 FEET WITH NO
SIGNIFICANT WEATHER AND/OR OBSTRUCTIONS TO VISIBILITY.

* - THESE STATIONS ARE NOT NWS STATIONS...THUS NOT UNDER NWS
QUALITY CONTROL.  THEY ALSO DO NOT REPORT WEATHER SUCH
AS PRECIPITATION OR FOG.

IAZ001>003-012>014-020>022-031>034-043>046-241500-
   NORTHWEST IOWA

CITY           SKY/WX    TMP DP  RH WIND       PRES   REMARKS
CARROLL *      SUNNY     68  63  83 CALM      30.14F
CHEROKEE *     CLOUDY    66  63  88 CALM      30.16R
DENISON *      SUNNY     70  59  68 S8        30.13S
LE MARS *      CLOUDY    66  63  88 W6        30.22R
ORANGE CITY *  LGT RAIN  66  63  88 NW7       30.22R
SHELDON *      DRIZZLE   64  61  88 CALM      30.18R
SIOUX CITY     PTSUNNY   67  61  81 N17       30.24R THUNDER
SPENCER        CLOUDY    67  61  81 CALM      30.17R
STORM LAKE *   SUNNY     66  63  88 S5        30.17R
$$

IAZ055>058-069>071-079>083-090>094-241500-
   SOUTHWEST IOWA

CITY           SKY/WX    TMP DP  RH WIND       PRES   REMARKS
ATLANTIC *     PTSUNNY   70  61  73 S6        30.15S
AUDUBON *      SUNNY     72  64  78 S5        30.16S
CLARINDA *     SUNNY     70  63  78 S6        30.17S
COUNCIL BLFS * SUNNY     72  63  73 S9        30.13F
CRESTON *      SUNNY     70  61  73 SE8       30.17S
HARLAN  *      MOSUNNY   66  63  88 S5        30.18F
LAMONI         SUNNY     69  60  73 SE5       30.17R
RED OAK *      SUNNY     72  63  73 S9        30.15F
SHENANDOAH *   SUNNY     72  63  73 SE10      30.15F
$$

IAZ047>049-059>061-072>074-084-241500-
   CENTRAL IOWA

CITY           SKY/WX    TMP DP  RH WIND       PRES   REMARKS
AMES           SUNNY     69  62  78 SE7       30.15F
ANKENY *       SUNNY     72  63  73 SE5       30.15F
CHARITON *     SUNNY     70  63  78 SE5       30.17S
DES MOINES     PTSUNNY   73  60  63 SE6       30.15S
GRINNELL*      SUNNY     70  59  68 E3        30.19R
KNOXVILLE *    SUNNY     70  63  78 E5        30.16R
MARSHALLTOWN   SUNNY     70  62  76 SE5       30.17R
PELLA *        SUNNY     70  61  73 E5        30.19R
PERRY *          N/A     70  63  78 SE5       30.15F
$$

IAZ004>006-015-016-023>025-035-036-241500-
   NORTH CENTRAL IOWA

CITY           SKY/WX    TMP DP  RH WIND       PRES   REMARKS
ALGONA *       SUNNY     72  61  68 S6        30.15S
CLARION *      SUNNY     72  61  68 CALM      30.15F
ESTHERVILLE    MOSUNNY   67  60  78 SW6       30.16R
FORT DODGE *   SUNNY     70  63  78 CALM      30.16S
MASON CITY     SUNNY     69  59  70 E3        30.18S
FOREST CITY *  SUNNY     70  63  78 SE3       30.16F
IOWA FALLS *     N/A     72  61  68 CALM      30.17F
$$

IAZ007>011-017>019-026>030-037>042-050>054-066-241500-
   NORTHEAST IOWA

CITY           SKY/WX    TMP DP  RH WIND       PRES   REMARKS
CEDAR RAPIDS   SUNNY     66  54  65 S8        30.17R
CHARLES CITY * SUNNY     68  61  77 S5        30.18S
CLINTON *      SUNNY     66  54  63 E7        30.21F
DECORAH *      SUNNY     64  61  88 CALM      30.17R
DUBUQUE        SUNNY     65  52  62 SE8       30.19S
MONTICELLO *   SUNNY     66  54  63 SE7       30.18S
OELWEIN *      SUNNY     66  61  82 S8        30.18S
WATERLOO       SUNNY     70  59  68 S7        30.16R
$$

IAZ064-065-067-068-078-241500-
   EAST CENTRAL IOWA

CITY           SKY/WX    TMP DP  RH WIND       PRES   REMARKS
DAVENPORT      SUNNY     66  53  63 E7        30.18F
IOWA CITY      SUNNY     67  56  67 SE6       30.19S
MT. PLEASANT * SUNNY     70  54  56 SE3       30.18S
MUSCATINE *    SUNNY     68  52  56 VRB6      30.18S
QUAD CITIES    SUNNY     66  53  63 E7        30.17F
$$

IAZ062-063-075>077-085>089-095>099-241500-
   SOUTHEAST IOWA

CITY           SKY/WX    TMP DP  RH WIND       PRES   REMARKS
BURLINGTON     SUNNY     68  52  56 SE7       30.17F
FAIRFIELD *    SUNNY     66  57  72 SE8       30.18S
FORT MADISON * SUNNY     70  59  68 E3        30.18F
KEOKUK *       SUNNY     68  52  56 E8        30.17S
OSKALOOSA *      N/A     68  63  83 SE7       30.18R
CENTERVILLE *  SUNNY     70  63  78 NE5       30.19S
OTTUMWA        SUNNY     68  61  78 SE6       30.17R
WASHINGTON *   SUNNY     68  57  68 SE6       30.18R
$$

ABBREVIATIONS USED IN REMARKS
   TC - TEMPERATURES IN CELSIUS
  WCI - WIND CHILL INDEX
   HX - HEAT INDEX
  VSB - VISIBILITY
$$



USA.gov is the U.S. government's official web portal to all federal, state and local government web resources and services.